CAPE
20 26 32 31 22 13 12 16 17 13 11 5 0 3 4 3 2 2 2 2 0 0 0 0 0 0 0 0 0 0 117 118 0 0 0 0 0 0 0 0 0 0 0 0 0 0 0
17 12 12 19 28 49 27 17 12 18 19 14 6 0 1 3 3 2 5 3 1 0 0 0 0 0 0 0 0 0 0 0 0 0 0 0 0 0 0 0 0 0 0 0 0 0 0
23 21 16 30 37 41 50 37 31 17 14 21 20 12 5 0 1 1 4 2 0 0 0 0 0 0 0 0 0 0 0 0 0 0 0 0 0 0 0 0 0 0 0 0 0 0 0
33 29 21 20 34 27 16 11 49 46 35 16 20 22 16 11 2 0 0 0 0 0 0 0 1 0 0 0 0 0 0 0 0 0 0 0 0 0 0 0 0 0 0 0 1 0 0
3 5 16 30 42 29 21 21 20 25 49 39 24 18 19 18 3 0 0 0 0 0 0 1 0 0 0 0 0 0 0 0 0 0 0 0 0 0 0 0 0 0 0 3 3 0 0
7 4 1 1 2 39 36 41 34 40 8 29 47 27 19 13 0 0 0 0 0 0 1 0 0 0 0 0 0 0 0 0 0 0 0 0 0 0 0 0 0 0 0 0 0 0 0
10 9 7 5 3 3 2 17 48 34 36 17 37 46 38 23 10 0 0 0 0 0 0 0 0 0 0 0 0 0 0 0 0 0 0 0 0 0 0 0 0 0 0 0 0 0 0
23 19 11 9 6 1 0 0 0 33 39 32 33 55 60 41 22 0 0 0 0 0 0 0 0 0 0 0 0 0 0 0 0 0 0 0 0 0 0 0 0 0 0 0 0 0 0
30 32 25 20 12 2 2 4 0 0 22 60 57 60 64 55 25 0 0 0 0 0 0 0 0 0 0 0 0 0 0 0 0 0 0 0 0 0 0 0 0 0 0 0 0 0 0
24 21 23 39 32 28 16 11 3 1 0 20 48 60 61 59 0 0 0 0 0 0 0 0 0 0 0 0 0 0 0 0 0 0 0 0 0 0 0 0 0 0 0 0 0 0 0
33 38 50 43 39 35 32 21 17 4 0 12 62 35 68 47 25 0 0 0 0 0 0 0 0 0 0 0 0 0 0 0 0 0 0 0 0 0 0 0 0 0 0 0 0 0 0
29 28 42 37 48 48 35 24 30 18 11 1 20 54 74 36 46 4 0 0 0 0 0 0 0 0 0 0 0 0 0 0 0 0 0 0 0 0 0 0 0 0 0 0 0 0 0
29 35 41 35 26 24 29 31 31 44 33 0 1 32 72 57 13 12 1 0 0 0 0 0 0 0 0 0 0 0 0 0 0 0 0 0 0 0 0 0 0 0 0 0 3 7 0
49 51 50 45 39 33 28 35 28 43 54 17 9 69 47 35 5 15 14 0 0 0 0 0 0 0 0 0 0 0 0 0 0 0 0 0 0 0 0 0 0 0 0 0 2 6 10
47 51 50 49 34 25 31 35 43 42 46 34 43 19 73 68 20 0 61 14 0 0 0 0 0 0 0 0 0 0 0 0 0 0 0 0 0 0 0 0 0 0 0 0 0 0 2
43 56 55 49 33 46 46 51 55 62 62 43 33 22 52 86 105 17 56 2 0 0 0 0 0 0 0 0 0 0 0 0 0 0 0 0 0 0 0 0 0 0 0 0 0 0 12
49 48 53 47 42 48 59 57 67 113 82 20 21 54 24 113 174 35 58 0 0 0 0 0 0 0 0 0 0 0 0 0 0 0 0 0 0 0 0 0 0 0 0 0 0 3 6
58 54 55 53 51 55 48 60 67 107 11 25 17 46 97 225 60 18 32 0 0 0 0 0 0 0 0 0 0 0 0 0 0 0 0 0 0 0 0 0 0 0 0 0 0 0 0
58 54 52 60 58 64 51 62 95 30 0 2 30 30 87 151 48 36 13 20 60 8 0 0 0 0 0 0 0 0 0 0 0 0 0 0 0 0 0 0 0 0 0 0 0 6 9
50 49 56 65 67 74 69 84 84 26 4 46 72 24 73 27 51 124 39 50 32 38 1 0 0 0 0 0 0 0 0 0 0 0 0 0 0 0 0 0 0 0 0 0 0 8 1
47 54 61 67 78 98 119 91 80 39 37 68 68 70 90 168 4 109 52 87 56 39 25 0 0 0 0 0 0 0 0 0 0 0 0 0 0 0 0 0 0 0 0 0 0 0 0
52 55 64 71 75 94 106 119 82 54 51 90 78 129 16 135 86 88 89 5 17 30 54 0 4 0 1 0 14 0 0 0 0 0 0 2 0 0 0 0 0 0 0 0 0 0 0
54 66 57 59 83 89 123 108 73 69 61 60 9 7 12 78 107 34 58 81 66 95 66 13 0 3 4 5 0 0 0 0 0 0 0 0 0 0 0 0 0 0 0 0 0 0 0
55 67 57 59 50 106 126 119 69 66 60 89 25 25 158 146 162 56 34 41 47 90 138 51 0 3 0 0 0 0 0 0 0 0 0 0 0 0 0 1 0 0 0 0 0 0 0
53 74 69 68 79 128 131 100 43 20 28 169 275 216 172 116 56 27 35 55 48 38 24 121 56 36 2 0 5 4 2 0 0 0 0 18 106 0 79 52 0 0 0 0 0 0 0
40 44 66 66 75 129 129 40 46 49 53 187 302 160 255 71 65 19 6 27 127 158 83 94 71 219 3 0 1 37 53 2 14 0 0 0 139 39 47 88 0 0 0 0 0 0 0
62 55 52 71 83 93 83 92 18 21 31 167 205 243 150 187 76 31 29 54 114 221 206 146 179 111 21 31 42 25 76 22 79 62 4 0 17 100 75 188 3 18 3 6 0 0 14
64 68 63 62 65 57 78 114 46 13 43 212 255 237 71 51 46 9 4 8 12 193 215 174 180 122 84 26 45 19 10 20 24 34 51 16 9 2 113 34 17 27 57 0 14 805 285
62 55 69 60 46 59 100 77 33 19 49 43 44 100 137 66 30 15 0 0 23 31 237 223 192 134 64 20 6 24 5 0 10 30 4 64 20 23 15 13 211 148 50 308 137 169 341
CIN
-1 -0 -0 -0 -0 -5 -3 -2 -2 -4 -5 -4 -0 -0 -0 -0 -0 -0 -0 -0 -0 -0 -0 -0 -0 -0 -0 -0 -0 -0 -585 -630 -0 -0 -0 -0 -0 -0 -0 -0 -0 -0 -0 -0 -0 -0 -0
-2 -0 -0 -1 -2 -0 -0 -2 -4 -5 -2 -4 -5 -0 -0 -0 -0 -0 -0 -0 -0 -0 -0 -0 -0 -0 -0 -0 -0 -0 -0 -0 -0 -0 -0 -0 -0 -0 -0 -0 -0 -0 -0 -0 -0 -0 -0
-2 -1 -2 -0 -0 -0 -0 -0 -2 -1 -8 -7 -5 -7 -3 -0 -0 -0 -0 -0 -0 -0 -0 -0 -0 -0 -0 -0 -0 -0 -0 -0 -0 -0 -0 -0 -0 -0 -0 -0 -0 -0 -0 -0 -0 -0 -0
-0 -0 -0 -1 -0 -0 -1 -0 -0 -0 -1 -2 -8 -8 -7 -3 -1 -0 -0 -0 -0 -0 -0 -0 -0 -0 -0 -0 -0 -0 -0 -0 -0 -0 -0 -0 -0 -0 -0 -0 -0 -0 -0 -0 -1 -0 -0
-2 -2 -0 -0 -0 -0 -2 -2 -1 -3 -0 -0 -0 -6 -11 -4 -0 -0 -0 -0 -0 -0 -0 -0 -0 -0 -0 -0 -0 -0 -0 -0 -0 -0 -0 -0 -0 -0 -0 -0 -0 -0 -0 -0 -0 -0 -0
-0 -0 -0 -0 -0 -0 -0 -0 -0 -0 -1 -0 -0 -1 -5 -5 -0 -0 -0 -0 -0 -0 -0 -0 -0 -0 -0 -0 -0 -0 -0 -0 -0 -0 -0 -0 -0 -0 -0 -0 -0 -0 -0 -0 -0 -0 -0
-0 -0 -0 -0 -0 -0 -0 -6 -0 -1 -0 -0 -0 -1 -3 -2 -4 -0 -0 -0 -0 -0 -0 -0 -0 -0 -0 -0 -0 -0 -0 -0 -0 -0 -0 -0 -0 -0 -0 -0 -0 -0 -0 -0 -0 -0 -0
-0 -0 -0 -0 -0 -0 -0 -0 -0 -0 -0 -0 -1 -0 -1 -2 -2 -0 -0 -0 -0 -0 -0 -0 -0 -0 -0 -0 -0 -0 -0 -0 -0 -0 -0 -0 -0 -0 -0 -0 -0 -0 -0 -0 -0 -0 -0
-0 -0 -0 -0 -0 -0 -0 -0 -0 -0 -0 -0 -2 -1 -0 -2 -1 -0 -0 -0 -0 -0 -0 -0 -0 -0 -0 -0 -0 -0 -0 -0 -0 -0 -0 -0 -0 -0 -0 -0 -0 -0 -0 -0 -0 -0 -0
-0 -0 -0 -0 -0 -0 -0 -0 -0 -0 -0 -0 -0 -1 -2 -1 -0 -0 -0 -0 -0 -0 -0 -0 -0 -0 -0 -0 -0 -0 -0 -0 -0 -0 -0 -0 -0 -0 -0 -0 -0 -0 -0 -0 -0 -0 -0
-0 -0 -0 -0 -0 -0 -0 -0 -0 -0 -0 -0 -0 -5 -6 -5 -0 -0 -0 -0 -0 -0 -0 -0 -0 -0 -0 -0 -0 -0 -0 -0 -0 -0 -0 -0 -0 -0 -0 -0 -0 -0 -0 -0 -0 -0 -0
-0 -0 -0 -0 -0 -0 -0 -0 -0 -0 -0 -0 -2 -1 -5 -2 -0 -0 -0 -0 -0 -0 -0 -0 -0 -0 -0 -0 -0 -0 -0 -0 -0 -0 -0 -0 -0 -0 -0 -0 -0 -0 -0 -0 -0 -0 -0
-0 -0 -0 -0 -0 -0 -0 -0 -0 -0 -0 -0 -0 -0 -2 -0 -3 -0 -0 -0 -0 -0 -0 -0 -0 -0 -0 -0 -0 -0 -0 -0 -0 -0 -0 -0 -0 -0 -0 -0 -0 -0 -0 -0 -0 -0 -0
-0 -0 -0 -0 -0 -0 -0 -0 -0 -0 -0 -0 -0 -0 -2 -0 -42 -1 -0 -0 -0 -0 -0 -0 -0 -0 -0 -0 -0 -0 -0 -0 -0 -0 -0 -0 -0 -0 -0 -0 -0 -0 -0 -0 -0 -0 -0
-0 -0 -0 -0 -0 -0 -0 -0 -0 -0 -0 -0 -1 -0 -0 -0 -16 -3 -0 -0 -0 -0 -0 -0 -0 -0 -0 -0 -0 -0 -0 -0 -0 -0 -0 -0 -0 -0 -0 -0 -0 -0 -0 -0 -0 -0 -0
-0 -0 -0 -0 -0 -0 -0 -0 -0 -0 -1 -1 -1 -0 -0 -0 -0 -16 -0 -0 -0 -0 -0 -0 -0 -0 -0 -0 -0 -0 -0 -0 -0 -0 -0 -0 -0 -0 -0 -0 -0 -0 -0 -0 -0 -0 -0
-0 -0 -0 -0 -0 -0 -0 -0 -0 -0 -2 -6 -1 -0 -0 -0 -0 -0 -0 -0 -0 -0 -0 -0 -0 -0 -0 -0 -0 -0 -0 -0 -0 -0 -0 -0 -0 -0 -0 -0 -0 -0 -0 -0 -0 -0 -0
-0 -0 -0 -0 -0 -0 -0 -16 -0 -0 -6 -0 -4 -0 -0 -0 -0 -0 -11 -0 -0 -0 -0 -0 -0 -0 -0 -0 -0 -0 -0 -0 -0 -0 -0 -0 -0 -0 -0 -0 -0 -0 -0 -0 -0 -0 -0
-0 -0 -0 -0 -0 -0 -0 -12 -2 -5 -0 -0 -0 -0 -0 -0 -0 -2 -10 -0 -0 -0 -0 -0 -0 -0 -0 -0 -0 -0 -0 -0 -0 -0 -0 -0 -0 -0 -0 -0 -0 -0 -0 -0 -0 -0 -0
-0 -0 -0 -0 -0 -0 -0 -2 -1 -0 -5 -1 -0 -0 -0 -0 -13 -0 -0 -0 -0 -0 -0 -0 -0 -0 -0 -0 -0 -0 -0 -0 -0 -0 -0 -12 -0 -0 -0 -0 -0 -0 -0 -0 -0 -0 -0
-0 -0 -0 -0 -0 -0 -0 -0 -3 -1 -2 -0 -0 -0 -0 -0 -2 -0 -0 -0 -0 -0 -0 -0 -0 -0 -0 -0 -0 -0 -0 -0 -0 -0 -0 -0 -0 -0 -0 -0 -0 -0 -0 -0 -0 -0 -0
-0 -0 -0 -0 -0 -0 -0 -0 -2 -4 -4 -0 -0 -0 -0 -0 -0 -0 -0 -0 -5 -0 -0 -0 -0 -0 -2 -0 -2 -0 -0 -0 -0 -0 -0 -20 -0 -0 -0 -0 -0 -0 -0 -0 -0 -0 -0
-0 -0 -0 -1 -0 -0 -1 -2 -2 -4 -1 -0 -0 -0 -0 -0 -0 -0 -0 -0 -0 -0 -0 -0 -0 -1 -0 -5 -0 -0 -0 -0 -0 -0 -0 -0 -0 -0 -0 -0 -0 -0 -0 -0 -0 -0 -0
-0 -0 -0 -0 -1 -0 -1 -1 -3 -1 -3 -0 -4 -0 -1 -0 -0 -1 -5 -1 -2 -2 -0 -0 -19 -0 -0 -0 -0 -0 -0 -0 -0 -0 -0 -0 -0 -0 -0 -0 -0 -0 -0 -0 -0 -0 -0
-0 -0 -0 -0 -0 -0 -1 -2 -5 -2 -4 -0 -0 -0 -0 -0 -0 -0 -0 -1 -2 -12 -0 -0 -0 -1 -1 -0 -4 -29 -31 -0 -0 -0 -0 -38 -6 -0 -0 -0 -0 -0 -0 -0 -0 -0 -0
-0 -0 -0 -0 -0 -1 -0 -3 -6 -9 -13 -1 -0 -4 -0 -0 -0 -2 -0 -8 -0 -0 -2 -0 -10 -2 -0 -0 -0 -0 -0 -10 -4 -0 -0 -0 -14 -0 -0 -0 -0 -0 -0 -0 -0 -0 -0
-0 -0 -0 -0 -0 -0 -1 -2 -5 -8 -9 -0 -0 -0 -0 -0 -0 -0 -0 -0 -2 -0 -0 -0 -0 -0 -13 -0 -0 -0 -0 -0 -0 -0 -14 -0 -27 -1 -1 -0 -0 -4 -1 -51 -19 -0 -42
-0 -0 -0 -0 -0 -0 -2 -4 -9 -13 -3 -0 -0 -0 -0 -0 -0 -0 -3 -0 -0 -0 -0 -0 -0 -0 -0 -0 -0 -0 -0 -0 -1 -0 -0 -8 -11 -3 -0 -0 -0 -2 -3 -23 -28 -13 -19
-0 -0 -0 -0 -0 -0 -1 -2 -12 -5 -4 -5 -3 -7 -1 -0 -0 -0 -0 -0 -0 -6 -0 -0 -0 -0 -0 -5 -0 -0 -0 -0 -0 -0 -10 -0 -0 -0 -0 -0 -8 -6 -2 -7 -0 -9 -19
Wind_Speed
13 13 14 13 10 7 6 8 8 7 8 10 12 14 15 16 17 17 16 16 16 16 16 15 15 15 8 10 14 5 8 10 13 19 22 21 20 20 19 17 15 14 17 14 13 12 9
16 16 16 16 12 11 11 10 7 8 9 8 9 12 13 15 16 17 16 17 16 17 18 15 13 12 7 19 6 10 11 10 11 18 21 24 20 21 15 17 15 12 11 13 11 11 6
17 17 17 16 14 13 12 10 10 10 9 10 9 10 11 13 15 17 17 16 17 19 19 16 12 8 10 23 3 2 6 8 10 18 16 24 22 16 17 12 15 11 14 13 13 10 6
18 18 17 16 15 14 15 16 16 12 12 11 10 10 11 12 15 17 19 19 21 22 20 16 9 8 12 8 15 21 19 14 5 11 14 15 19 17 12 7 10 14 15 15 13 9 6
21 21 20 20 18 15 15 15 15 16 14 13 13 10 10 12 14 16 17 20 25 18 8 4 8 8 14 7 13 19 16 17 20 15 10 8 19 17 15 15 16 15 15 19 10 11 6
19 19 19 19 20 18 18 17 15 14 14 13 12 12 12 10 13 15 16 22 8 7 5 7 5 7 12 11 11 7 12 19 10 16 13 14 13 16 18 17 16 16 13 11 13 10 10
17 18 19 19 19 19 18 18 18 16 16 16 15 10 13 11 12 13 16 5 8 9 10 12 11 16 3 5 4 10 9 16 15 19 18 21 20 23 26 22 16 13 12 14 11 5 10
18 18 18 18 18 18 19 19 19 17 16 15 16 14 10 10 11 11 11 7 3 5 11 19 25 19 21 4 6 14 13 15 20 22 22 17 23 25 21 18 16 15 17 17 11 9 9
20 19 18 19 19 18 18 18 18 19 16 14 12 14 13 9 8 10 7 6 3 4 10 14 22 24 25 19 12 15 20 21 23 27 27 23 20 22 19 15 18 19 17 14 12 12 12
21 21 21 19 19 18 19 19 18 17 18 16 13 11 12 6 6 3 6 7 4 4 9 11 12 14 28 21 19 23 21 19 19 28 26 22 19 19 18 22 20 20 15 15 13 13 12
22 21 21 20 20 20 19 19 18 18 16 15 13 14 10 10 8 6 7 1 6 5 10 6 13 9 18 30 9 27 21 20 20 19 25 23 23 23 22 20 19 15 12 12 14 12 12
25 25 23 22 21 20 20 19 18 18 17 15 14 14 9 2 8 11 4 6 5 9 16 10 12 17 19 28 17 17 26 18 16 20 20 23 15 19 19 14 12 14 8 9 8 11 12
25 24 24 24 23 23 20 18 18 18 16 17 15 13 11 5 3 10 5 8 10 17 7 12 13 19 25 19 27 18 31 30 20 23 22 25 20 19 17 18 13 16 13 10 10 10 11
24 24 24 24 24 24 23 20 16 16 17 17 14 11 11 10 9 10 7 11 19 21 28 9 14 21 24 20 25 25 25 29 29 24 18 22 25 25 17 19 16 19 17 11 10 12 11
26 26 26 26 24 25 24 20 18 16 16 16 10 9 10 10 11 7 9 18 23 24 16 26 11 21 19 21 12 24 27 29 31 28 19 23 24 27 23 21 20 14 15 15 16 14 9
27 27 27 26 26 24 23 20 16 16 14 16 8 8 11 15 13 5 8 31 22 18 6 19 31 20 24 25 17 25 25 22 31 32 25 9 20 15 23 19 22 21 15 11 10 13 13
27 28 28 27 26 24 23 19 16 15 12 16 7 5 4 14 10 6 13 31 28 23 7 11 20 28 23 21 24 27 19 12 32 32 26 15 12 21 17 22 22 13 17 14 13 13 12
27 28 28 28 26 24 22 18 15 14 15 10 6 5 5 12 9 3 9 32 32 19 21 20 11 20 22 21 25 24 23 22 23 27 35 29 12 14 21 20 22 22 22 21 12 15 10
27 28 28 27 25 23 20 17 12 13 14 6 4 3 3 9 10 12 11 26 25 22 16 14 17 13 21 21 17 24 19 14 17 27 27 24 15 16 16 10 14 22 21 21 20 15 15
27 29 29 27 24 22 17 12 6 16 11 5 3 3 4 1 8 18 24 19 18 18 21 21 19 19 19 20 18 15 19 18 18 26 14 22 17 26 22 20 18 22 21 23 22 17 15
26 28 28 27 24 19 16 9 7 11 13 7 3 4 3 4 6 13 9 10 12 19 21 20 12 19 14 16 22 17 18 17 16 22 22 20 24 24 24 21 24 20 22 24 25 23 20
26 27 27 27 25 16 15 12 7 10 10 6 3 3 3 2 4 15 14 17 21 17 18 25 22 24 6 12 12 20 16 17 21 19 25 21 15 19 20 24 20 22 24 23 25 25 22
25 26 27 25 24 19 14 12 7 11 13 2 1 3 2 3 4 2 3 12 19 17 19 22 25 14 16 5 11 11 10 2 3 19 20 20 16 15 20 19 20 24 25 25 23 25 22
25 26 26 26 26 19 13 12 9 11 15 3 3 3 2 4 7 7 9 11 12 21 20 21 22 20 7 11 15 7 8 5 7 6 11 18 20 13 13 16 20 17 21 24 23 20 21
26 26 26 26 27 20 14 9 4 8 8 3 2 3 3 5 7 11 10 12 10 11 17 21 13 5 4 12 9 7 8 10 11 12 9 12 17 12 12 16 8 12 12 22 22 24 19
27 27 26 26 27 20 12 8 7 9 14 5 3 1 4 4 1 3 9 17 11 11 11 20 21 2 6 4 9 13 13 16 13 13 8 7 12 14 12 19 27 11 15 14 16 17 19
25 26 25 25 27 16 13 10 6 1 12 4 2 5 2 3 5 3 4 6 5 8 7 14 17 10 7 8 2 6 10 18 19 20 16 11 11 17 13 15 11 4 18 13 18 7 14
25 24 24 23 23 21 15 14 6 3 9 5 1 3 1 3 8 5 7 2 6 4 4 6 5 8 9 13 8 2 8 8 10 18 20 13 12 12 14 14 13 9 10 18 9 7 6
24 23 22 22 22 23 17 11 7 2 8 4 1 1 2 5 8 9 12 13 9 8 6 3 5 5 8 8 9 8 7 8 9 11 1 14 14 11 12 10 7 11 8 13 7 10 8
Wind_Direction
347 353 348 341 316 292 295 300 294 300 303 314 321 322 324 326 329 324 316 314 315 312 307 312 321 325 311 245 247 182 152 132 173 198 208 205 201 206 216 216 229 230 263 258 269 274 260
352 347 343 337 333 327 310 301 272 287 291 290 303 313 319 319 316 314 315 319 314 305 312 317 311 305 252 254 263 250 241 241 228 200 206 209 212 214 232 232 233 244 259 273 265 251 210
345 339 338 337 336 330 319 315 315 270 256 272 275 287 301 308 310 314 314 311 308 309 309 302 290 260 247 241 200 239 212 241 224 206 213 216 219 206 223 223 232 253 255 240 234 217 224
350 341 337 333 332 332 332 330 319 304 284 274 263 275 290 300 306 312 313 311 306 301 296 285 241 218 255 253 253 250 247 246 187 203 233 210 220 218 223 188 204 230 236 251 192 201 160
346 345 347 346 336 325 323 320 319 320 306 287 276 273 278 290 294 308 308 304 300 294 254 198 182 234 258 115 226 237 225 218 221 220 228 201 200 213 208 228 238 225 250 231 233 197 194
345 342 338 333 331 338 338 322 314 308 313 306 300 273 276 290 300 302 313 290 288 249 170 184 255 227 239 228 214 217 198 211 191 188 188 197 191 198 217 214 229 232 222 243 257 184 224
340 336 333 332 329 325 323 325 325 309 304 303 303 289 276 284 292 309 324 295 208 186 208 216 187 229 85 255 230 211 172 191 203 187 188 192 205 206 209 218 239 267 259 258 253 271 264
336 331 328 325 321 320 317 317 313 320 304 297 298 298 280 269 282 308 290 277 36 357 289 236 250 239 261 301 237 216 178 184 192 197 200 187 216 211 220 217 229 232 243 249 254 267 278
332 328 323 319 312 307 305 305 307 305 310 301 288 293 298 257 280 272 274 288 326 312 257 249 225 226 224 212 234 202 192 207 193 201 200 204 213 216 212 213 217 228 242 248 260 293 273
336 332 328 320 309 299 295 294 294 294 296 301 292 286 293 265 266 265 244 146 291 292 271 241 203 235 210 218 233 228 200 196 208 208 205 217 216 187 199 217 216 233 220 260 259 269 283
334 330 325 320 312 306 297 289 282 283 282 284 288 279 274 246 329 245 72 259 317 224 268 165 175 147 187 188 154 197 193 203 213 205 201 206 205 191 206 214 212 242 236 234 258 271 285
336 332 326 322 314 311 302 291 277 268 272 272 273 266 259 274 242 262 268 297 227 216 236 193 158 182 173 200 212 153 184 202 217 212 211 223 207 201 212 212 215 227 202 226 248 259 252
333 330 328 324 321 316 310 295 284 268 252 260 264 268 238 151 237 253 247 230 202 228 164 185 180 178 180 186 203 176 187 193 189 194 200 213 190 208 214 207 204 222 213 227 219 218 251
332 328 323 319 317 312 308 302 279 276 255 240 248 258 224 221 220 278 229 220 221 221 223 117 189 182 192 172 202 190 190 195 209 201 190 198 206 191 196 206 186 202 210 238 231 245 253
333 329 325 323 324 319 310 300 283 271 269 215 231 235 239 212 206 211 242 216 221 219 220 226 192 192 197 189 192 195 205 204 199 199 212 196 208 194 202 209 218 181 220 229 256 269 272
331 329 328 325 322 318 320 308 288 286 270 191 224 223 235 200 183 180 221 237 230 234 287 219 223 201 197 191 202 192 191 209 205 211 213 190 207 187 195 207 212 227 199 201 222 243 241
330 331 329 329 326 322 317 306 294 292 262 172 204 216 205 178 164 203 213 228 237 269 328 292 238 230 223 190 204 193 197 186 202 195 207 184 205 193 190 204 203 186 223 214 254 226 233
331 332 331 331 329 327 331 320 298 301 139 151 211 214 178 143 192 216 229 229 239 284 319 266 301 268 230 223 201 197 217 202 191 188 198 202 198 178 211 197 219 201 213 206 222 210 247
332 333 331 331 331 332 335 331 319 144 151 153 215 235 177 182 203 218 246 244 250 248 277 313 276 255 250 232 224 216 209 197 186 190 195 189 209 205 194 186 214 225 211 217 216 247 241
332 332 332 331 332 332 336 340 75 145 172 233 167 217 192 241 261 242 231 245 253 257 257 272 269 292 269 237 224 207 209 190 192 189 183 191 200 209 208 200 194 208 223 214 215 222 231
332 332 334 335 333 333 338 331 164 175 191 239 233 221 264 189 230 256 256 242 254 239 239 265 288 245 281 235 218 224 204 177 200 189 187 188 209 208 225 214 200 207 213 213 218 218 232
333 334 337 340 343 339 337 340 240 190 172 223 171 245 202 206 280 213 228 244 254 245 245 245 249 275 277 261 269 214 200 191 186 181 192 191 211 219 212 220 210 214 217 211 217 221 228
335 337 339 340 339 335 330 338 304 201 179 167 139 207 235 154 180 211 288 244 254 251 236 251 242 265 260 324 319 325 324 355 153 186 188 190 206 206 218 215 222 226 216 214 219 224 226
340 340 340 340 336 333 325 336 336 203 201 171 169 195 256 272 245 274 276 249 271 250 241 231 234 236 276 304 288 246 248 206 182 166 197 190 197 200 204 199 209 244 214 220 222 225 224
343 341 341 342 341 344 347 358 69 148 180 235 188 246 240 263 235 268 280 296 246 226 260 269 258 305 211 281 256 208 205 201 188 177 177 215 190 195 207 205 219 188 205 211 215 231 219
343 345 344 344 343 345 5 7 12 198 190 223 243 130 271 302 275 348 285 284 251 240 223 233 263 168 197 311 319 227 195 195 176 164 166 166 218 199 210 194 219 182 168 200 211 227 210
341 345 346 346 348 2 360 355 354 67 178 205 287 214 219 258 267 266 267 296 270 212 220 197 212 210 232 157 213 278 227 211 202 174 173 169 185 199 186 216 225 270 176 168 194 193 191
341 344 346 347 352 353 350 359 32 4 189 217 0 206 232 275 282 247 184 271 303 281 232 197 173 219 206 221 164 195 280 220 247 207 183 181 181 196 203 205 212 160 150 195 187 101 176
342 345 346 348 352 356 355 349 4 17 175 233 289 255 223 238 287 301 275 272 259 338 337 286 297 270 199 220 216 172 224 291 235 209 208 214 203 200 204 202 91 168 195 206 187 214 209